Weather History for Prairie Du Chien, WI

Change the Weather History Date:

Monday, February 18, 2013

  Actual Average Record
Temperature  
Mean Temperature 28 °F -  
Max Temperature 42 °F 35 °F 64 °F (1981)
Min Temperature 14 °F 19 °F -16 °F (2006)
Degree Days  
Heating Degree Days 37    
Moisture  
Dew Point 24 °F    
Average Humidity 73    
Maximum Humidity 87    
Minimum Humidity 61    
Precipitation  
Precipitation 0.00 in - - ()
Sea Level Pressure  
Sea Level Pressure 29.62 in    
Wind  
Wind Speed 10 mph (SW)    
Max Wind Speed 28 mph    
Max Gust Speed 33 mph    
Visibility 10 miles    
Events Rain    
Averages and records for this station are not official NWS values.
T = Trace of Precipitation, MM = Missing Value Source: NWS Daily Summary

Daily Weather History Graph

Daily Weather History Graph

Search for Another Location

Airport:

Trip Planner

Search our weather history database for the weather conditions in past years. The results will help you decide how hot, cold, wet, or windy it might be!

Date:

Astronomy

Feb. 18, 2013 Rise Set
Actual Time 6:57 AM CST 5:40 PM CST
Civil Twilight 6:28 AM CST 6:09 PM CST
Nautical Twilight 5:55 AM CST 6:42 PM CST
Astronomical Twilight 5:22 AM CST 7:15 PM CST
Moon 11:21 AM CST (2/18) 1:41 AM CST (2/18)
Length of Visible Light 11h 40m
Length of Day
10h 42m
First Quarter, 58% of the Moon is Illuminated
Feb 18
First Quarter
Feb 25
Full
Mar 4
Last Quarter
Mar 11
New
Mar 19
First Quarter

Hourly Weather History & Observations

Time (CST) Temp. Windchill Dew Point Humidity Pressure Visibility Wind Dir Wind Speed Gust Speed Precip Events Conditions
12:15 AM 32.0 °F 22.5 °F 21.2 °F 64% 29.78 in 10.0 mi ESE 12.7 mph 19.6 mph N/A   Clear
12:35 AM 32.0 °F 24.8 °F 21.2 °F 64% 29.77 in 10.0 mi ESE 8.1 mph - N/A   Clear
12:55 AM 32.0 °F 25.6 °F 21.2 °F 64% 29.76 in 10.0 mi ESE 6.9 mph - N/A   Clear
1:15 AM 32.0 °F 23.6 °F 21.2 °F 64% 29.75 in 10.0 mi ESE 10.4 mph - N/A   Clear
1:35 AM 32.0 °F 25.6 °F 23.0 °F 69% 29.74 in 10.0 mi ESE 6.9 mph 16.1 mph N/A   Clear
1:55 AM 32.0 °F 24.8 °F 23.0 °F 69% 29.73 in 10.0 mi ESE 8.1 mph - N/A   Clear
2:15 AM 32.0 °F 24.2 °F 23.0 °F 69% 29.72 in 10.0 mi ESE 9.2 mph - N/A   Clear
2:35 AM 32.0 °F 24.8 °F 23.0 °F 69% 29.71 in 10.0 mi ESE 8.1 mph - N/A   Clear
2:55 AM 32.0 °F 24.8 °F 23.0 °F 69% 29.69 in 10.0 mi ESE 8.1 mph - N/A   Clear
3:15 AM 32.0 °F 24.2 °F 23.0 °F 69% 29.68 in 10.0 mi SE 9.2 mph 17.3 mph N/A   Clear
3:35 AM 32.0 °F 24.8 °F 24.8 °F 75% 29.66 in 10.0 mi ESE 8.1 mph 17.3 mph N/A   Clear
3:55 AM 32.0 °F 24.8 °F 24.8 °F 75% 29.65 in 10.0 mi ESE 8.1 mph - N/A   Clear
4:15 AM 32.0 °F 24.2 °F 24.8 °F 75% 29.65 in 10.0 mi ESE 9.2 mph - N/A   Clear
4:35 AM 32.0 °F 25.6 °F 24.8 °F 75% 29.64 in 10.0 mi ESE 6.9 mph - N/A   Clear
4:55 AM 32.0 °F 26.4 °F 24.8 °F 75% 29.64 in 10.0 mi ESE 5.8 mph - N/A   Clear
5:15 AM 32.0 °F 26.4 °F 24.8 °F 75% 29.63 in 10.0 mi East 5.8 mph - N/A   Clear
5:35 AM 30.2 °F 24.3 °F 24.8 °F 80% 29.63 in 10.0 mi East 5.8 mph - N/A   Clear
5:55 AM 30.2 °F 23.4 °F 24.8 °F 80% 29.62 in 10.0 mi ESE 6.9 mph - N/A   Clear
6:15 AM 30.2 °F 23.4 °F 24.8 °F 80% 29.61 in 10.0 mi East 6.9 mph - N/A   Clear
6:35 AM 30.2 °F 23.4 °F 24.8 °F 80% 29.61 in 10.0 mi ESE 6.9 mph - N/A   Clear
6:55 AM 30.2 °F 23.4 °F 24.8 °F 80% 29.61 in 10.0 mi East 6.9 mph - N/A   Clear
7:15 AM 30.2 °F 23.4 °F 24.8 °F 80% 29.60 in 10.0 mi ESE 6.9 mph - N/A   Clear
7:35 AM 32.0 °F 25.6 °F 24.8 °F 75% 29.60 in 10.0 mi East 6.9 mph - N/A   Clear
7:55 AM 32.0 °F 26.4 °F 24.8 °F 75% 29.60 in 10.0 mi East 5.8 mph - N/A   Clear
8:15 AM 32.0 °F 25.6 °F 26.6 °F 80% 29.59 in 10.0 mi ESE 6.9 mph - N/A   Clear
8:35 AM 32.0 °F 26.4 °F 26.6 °F 80% 29.59 in 10.0 mi ESE 5.8 mph - N/A   Clear
8:55 AM 33.8 °F 29.6 °F 26.6 °F 75% 29.58 in 10.0 mi ESE 4.6 mph - N/A   Clear
9:15 AM 33.8 °F 30.8 °F 28.4 °F 81% 29.57 in 10.0 mi East 3.5 mph - N/A   Clear
9:35 AM 35.6 °F 32.8 °F 28.4 °F 75% 29.57 in 10.0 mi East 3.5 mph - N/A   Clear
9:55 AM 37.4 °F - 28.4 °F 70% 29.57 in 10.0 mi Calm Calm - N/A   Clear
10:15 AM 39.2 °F 35.0 °F 30.2 °F 70% 29.58 in 10.0 mi South 5.8 mph - N/A   Clear
10:35 AM 39.2 °F 37.0 °F 30.2 °F 70% 29.56 in 10.0 mi South 3.5 mph - N/A   Clear
10:55 AM 41.0 °F 39.0 °F 30.2 °F 65% 29.55 in 10.0 mi South 3.5 mph - N/A   Clear
11:15 AM 41.0 °F - 30.2 °F 65% 29.55 in 10.0 mi Calm Calm - N/A   Clear
11:35 AM 41.0 °F 39.0 °F 30.2 °F 65% 29.54 in 10.0 mi SSW 3.5 mph - N/A   Clear
11:55 AM 42.8 °F 38.6 °F 32.0 °F 66% 29.54 in 10.0 mi SW 6.9 mph - N/A   Clear
12:15 PM 42.8 °F 39.3 °F 32.0 °F 66% 29.54 in 10.0 mi WSW 5.8 mph - N/A   Scattered Clouds
12:35 PM 42.8 °F 38.6 °F 30.2 °F 61% 29.53 in 10.0 mi WSW 6.9 mph - N/A   Scattered Clouds
12:55 PM 42.8 °F 39.3 °F 30.2 °F 61% 29.52 in 10.0 mi West 5.8 mph - N/A   Scattered Clouds
1:15 PM 42.8 °F 37.5 °F 30.2 °F 61% 29.53 in 10.0 mi West 9.2 mph - N/A   Clear
1:35 PM 42.8 °F 39.3 °F 30.2 °F 61% 29.53 in 10.0 mi WSW 5.8 mph - N/A   Mostly Cloudy
1:55 PM 41.0 °F 35.8 °F 30.2 °F 65% 29.51 in 10.0 mi West 8.1 mph - N/A   Mostly Cloudy
2:15 PM 39.2 °F 31.6 °F 30.2 °F 70% 29.54 in 10.0 mi West 12.7 mph 17.3 mph N/A   Overcast
2:35 PM 39.2 °F 32.0 °F 30.2 °F 70% 29.54 in 10.0 mi West 11.5 mph - N/A   Overcast
2:55 PM 39.2 °F 31.2 °F 30.2 °F 70% 29.54 in 10.0 mi WNW 13.8 mph - N/A   Overcast
3:15 PM 37.4 °F 28.9 °F 30.2 °F 75% 29.55 in 10.0 mi WNW 13.8 mph 19.6 mph N/A   Overcast
3:35 PM 37.4 °F 29.3 °F 32.0 °F 81% 29.54 in 7.0 mi WNW 12.7 mph - N/A   Overcast
3:55 PM 35.6 °F 24.8 °F 32.0 °F 87% 29.54 in 5.0 mi West 19.6 mph 23.0 mph N/A   Drizzle
4:15 PM 33.8 °F 22.8 °F 30.2 °F 87% 29.55 in 5.0 mi WNW 18.4 mph - N/A Rain Light Rain
4:35 PM 32.0 °F 20.5 °F 28.4 °F 87% 29.56 in 10.0 mi West 18.4 mph 26.5 mph N/A   Overcast
4:55 PM 32.0 °F 20.1 °F 26.6 °F 80% 29.57 in 10.0 mi WNW 19.6 mph 26.5 mph N/A   Overcast
5:15 PM 30.2 °F 18.5 °F 24.8 °F 80% 29.59 in 10.0 mi WNW 17.3 mph 24.2 mph N/A   Overcast
5:35 PM 30.2 °F 20.2 °F 23.0 °F 75% 29.59 in 10.0 mi WNW 12.7 mph - N/A   Overcast
5:55 PM 28.4 °F 19.1 °F 23.0 °F 80% 29.60 in 10.0 mi NW 10.4 mph 18.4 mph N/A   Overcast
6:15 PM 28.4 °F 15.1 °F 21.2 °F 74% 29.61 in 10.0 mi WNW 20.7 mph 26.5 mph N/A   Overcast
6:35 PM 26.6 °F 12.7 °F 19.4 °F 74% 29.61 in 10.0 mi West 20.7 mph 29.9 mph N/A   Overcast
6:55 PM 24.8 °F 11.9 °F 19.4 °F 80% 29.62 in 10.0 mi NW 16.1 mph 25.3 mph N/A   Overcast
7:15 PM 24.8 °F 8.4 °F 15.8 °F 69% 29.61 in 10.0 mi WNW 27.6 mph 33.4 mph N/A   Overcast
7:35 PM 23.0 °F 6.6 °F 14.0 °F 68% 29.64 in 10.0 mi WNW 25.3 mph 31.1 mph N/A   Overcast
7:55 PM 21.2 °F 5.2 °F 15.8 °F 80% 29.65 in 10.0 mi WNW 21.9 mph 27.6 mph N/A   Overcast
8:15 PM 19.4 °F 4.5 °F 14.0 °F 80% 29.65 in 10.0 mi WNW 17.3 mph 32.2 mph N/A   Overcast
8:35 PM 19.4 °F 4.1 °F 12.2 °F 74% 29.66 in 10.0 mi WNW 18.4 mph 26.5 mph N/A   Overcast
8:55 PM 19.4 °F 3.6 °F 12.2 °F 74% 29.66 in 10.0 mi West 19.6 mph 25.3 mph N/A   Overcast
9:15 PM 17.6 °F -0.6 °F 10.4 °F 73% 29.67 in 10.0 mi WNW 25.3 mph 31.1 mph N/A   Overcast
9:35 PM 17.6 °F 1.3 °F 12.2 °F 79% 29.68 in 7.0 mi West 19.6 mph 25.3 mph N/A   Overcast
9:55 PM 17.6 °F 1.7 °F 10.4 °F 73% 29.69 in 7.0 mi WNW 18.4 mph 29.9 mph N/A   Overcast
10:15 PM 15.8 °F -2.7 °F 8.6 °F 73% 29.69 in 10.0 mi West 24.2 mph 27.6 mph N/A   Overcast
10:35 PM 15.8 °F -1.5 °F 8.6 °F 73% 29.71 in 10.0 mi West 20.7 mph 25.3 mph N/A   Overcast
11:15 PM 14.0 °F -3.9 °F 6.8 °F 73% 29.72 in 10.0 mi West 20.7 mph 28.8 mph N/A   Overcast
11:55 PM 14.0 °F -2.5 °F 6.8 °F 73% 29.73 in 7.0 mi West 17.3 mph 27.6 mph N/A   Overcast